Location: Bühlhof
(48.7849°N, 8.6361°E)
Time: 05:38:48
(UTC+00:00)

RESURS DK-1 - Pass Details

Date: 19 January 2026
Orbit: 526 x 531 km, 69.9° (Epoch: 18 February)

Event Time Altitude Azimuth Distance (km) Brightness Sun altitude
Rises 17:42:07 0° 222° (SW) 2,664 6.8 -16.0°
Reaches altitude 10° 17:44:21 10° 228° (SW) 1,779 5.8 -16.4°
Maximum altitude 17:48:12 50° 304° (NW) 688 3.0 -17.0°
Enters shadow 17:51:11 16° 17° (NNE) 1,445 4.2 -17.5°
